Weather History for Greenwood, SC

Change the Weather History Date:

Thursday, January 12, 2012

  Actual Average (KAND) Record (KAND)
Temperature  
Mean Temperature 54 °F -  
Max Temperature 61 °F 48 °F 71 °F (1949)
Min Temperature 48 °F 29 °F 10 °F (1982)
Degree Days  
Heating Degree Days 10    
Growing Degree Days 4 (Base 50)    
Moisture  
Dew Point 43 °F    
Average Humidity 69    
Maximum Humidity 83    
Minimum Humidity 54    
Precipitation  
Precipitation 0.02 in - - ()
Sea Level Pressure  
Sea Level Pressure 29.69 in    
Wind  
Wind Speed 11 mph (WSW)    
Max Wind Speed 18 mph    
Max Gust Speed 32 mph    
Visibility 10 miles    
Events      
Averages and records for this station are not official NWS values.
T = Trace of Precipitation, MM = Missing Value Source: NWS Daily Summary

Daily Weather History Graph

Daily Weather History Graph

Search for Another Location

Airport:

Trip Planner

Search our weather history database for the weather conditions in past years. The results will help you decide how hot, cold, wet, or windy it might be!

Date:

Astronomy

Jan. 12, 2012 Rise Set
Actual Time 7:35 AM EST 5:38 PM EST
Civil Twilight 7:07 AM EST 6:06 PM EST
Nautical Twilight 6:36 AM EST 6:37 PM EST
Astronomical Twilight 6:06 AM EST 7:07 PM EST
Moon 9:30 PM EST (1/12) 9:29 AM EST (1/12)
Length of Visible Light 10h 58m
Length of Day
10h 03m
Waning Gibbous, 87% of the Moon is Illuminated
Jan 12
Waning Gibbous
Jan 16
Last Quarter
Jan 23
New
Jan 30
First Quarter
Feb 7
Full

Hourly Weather History & Observations

Time (EST) Temp. Dew Point Humidity Pressure Visibility Wind Dir Wind Speed Gust Speed Precip Events Conditions
12:56 AM 51.1 °F 42.1 °F 71% 29.69 in 10.0 mi WSW 9.2 mph - N/A   Overcast
1:56 AM 51.1 °F 42.1 °F 71% 29.68 in 10.0 mi West 9.2 mph - N/A   Overcast
2:43 AM 50.0 °F 41.0 °F 71% 29.69 in 10.0 mi WSW 9.2 mph - N/A   Mostly Cloudy
2:56 AM 48.9 °F 41.0 °F 74% 29.69 in 10.0 mi WSW 10.4 mph - N/A   Scattered Clouds
3:56 AM 48.9 °F 42.1 °F 77% 29.68 in 10.0 mi WSW 8.1 mph - N/A   Mostly Cloudy
4:56 AM 48.9 °F 42.1 °F 77% 29.68 in 10.0 mi SW 10.4 mph - N/A   Mostly Cloudy
5:56 AM 50.0 °F 43.0 °F 77% 29.70 in 10.0 mi WSW 11.5 mph - N/A   Mostly Cloudy
6:15 AM 50.0 °F 42.8 °F 76% 29.71 in 10.0 mi WSW 10.4 mph - N/A   Overcast
7:56 AM 50.0 °F 42.1 °F 74% 29.72 in 10.0 mi WSW 12.7 mph - N/A   Overcast
8:56 AM 51.1 °F 42.1 °F 71% 29.75 in 10.0 mi West 9.2 mph 24.2 mph N/A   Overcast
9:56 AM 52.0 °F 43.0 °F 71% 29.75 in 10.0 mi WSW 9.2 mph 20.7 mph N/A   Overcast
10:56 AM 52.0 °F 44.1 °F 74% 29.75 in 10.0 mi WSW 17.3 mph 23.0 mph N/A   Overcast
12:56 PM 57.9 °F 44.1 °F 60% 29.68 in 10.0 mi SW 10.4 mph - N/A   Mostly Cloudy
1:04 PM 57.2 °F 44.6 °F 63% 29.68 in 10.0 mi SW 11.5 mph 21.9 mph N/A   Scattered Clouds
1:56 PM 61.0 °F 44.1 °F 54% 29.65 in 10.0 mi WSW 12.7 mph 24.2 mph N/A   Mostly Cloudy
2:56 PM 61.0 °F 44.1 °F 54% 29.63 in 10.0 mi SSW 11.5 mph 19.6 mph N/A   Scattered Clouds
3:56 PM 60.1 °F 44.1 °F 55% 29.60 in 10.0 mi SSW 10.4 mph - N/A   Mostly Cloudy
5:56 PM 54.0 °F 48.9 °F 83% 29.61 in 10.0 mi WSW 6.9 mph - 0.00 in   Overcast
6:56 PM 55.9 °F 48.0 °F 75% 29.62 in 10.0 mi SW 18.4 mph 24.2 mph 0.00 in   Mostly Cloudy
7:56 PM 55.0 °F 45.0 °F 69% 29.63 in 10.0 mi WSW 15.0 mph 25.3 mph N/A   Clear
8:56 PM 53.1 °F 37.9 °F 57% 29.66 in 10.0 mi West 16.1 mph 32.2 mph N/A   Partly Cloudy
10:56 PM - - N/A% 29.81 in - North - - N/A   Unknown
11:56 PM - - N/A% 29.85 in - North - - N/A   Unknown